EW5545 Weather Reports


Display with metric or nautical units.
time (UTC)temp
F
wind
direction
speed
MPH
gust
MPH
rain 1hr
in
rain 24hr
in
rain mn
in
humidity
%
barometer
mb
20200919185516 71 351 2.0 2.0 0.00 0.00 0.00 84 1016.7
20200919185019 71 22 1.0 2.0 0.00 0.00 0.00 84 1016.7
20200919184600 71 8 1.0 2.0 0.00 0.00 0.00 84 1016.7
20200919184020 71 22 1.0 3.0 0.00 0.00 0.00 83 1016.7
20200919183517 71 26 1.0 3.0 0.00 0.00 0.00 83 1016.7
20200919183019 71 0 0.0 2.0 0.00 0.00 0.00 83 1016.7
20200919182514 71 22 1.0 2.0 0.00 0.00 0.00 83 1016.7
20200919182023 71 34 1.0 3.0 0.00 0.00 0.00 83 1016.7
20200919181525 71 27 1.0 2.0 0.00 0.00 0.00 82 1016.6
20200919181103 71 25 2.0 3.0 0.00 0.00 0.00 82 1016.6
20200919180521 71 34 1.0 3.0 0.00 0.00 0.00 81 1016.5
20200919175552 71 35 1.0 3.0 0.00 0.00 0.00 81 1016.4
20200919175012 71 27 1.0 3.0 0.00 0.00 0.00 81 1016.4
20200919174515 71 26 1.0 7.0 0.00 0.00 0.00 80 1016.3
20200919174027 72 28 3.0 7.0 0.00 0.00 0.00 80 1016.3
20200919173535 72 20 3.0 7.0 0.00 0.00 0.00 79 1016.3
20200919173038 72 26 3.0 6.0 0.00 0.00 0.00 79 1016.3
20200919172509 72 29 5.0 7.0 0.00 0.00 0.00 78 1016.3
20200919172025 72 25 2.0 7.0 0.00 0.00 0.00 78 1016.2
20200919171527 72 19 3.0 7.0 0.00 0.00 0.00 77 1016.2
20200919171017 73 25 3.0 8.0 0.00 0.00 0.00 77 1016.2
20200919170511 73 23 4.0 8.0 0.00 0.00 0.00 76 1016.2
20200919170020 73 27 3.0 7.0 0.00 0.00 0.00 75 1016.2
20200919165508 73 26 3.0 6.0 0.00 0.00 0.00 75 1016.2
20200919165011 74 26 3.0 6.0 0.00 0.00 0.00 74 1016.2
20200919164521 74 29 3.0 6.0 0.00 0.00 0.00 73 1016.2
20200919164015 74 23 4.0 9.0 0.00 0.00 0.00 73 1016.2
20200919163515 74 26 3.0 7.0 0.00 0.00 0.00 72 1016.1
20200919163023 74 26 4.0 8.0 0.00 0.00 0.00 70 1016.1
20200919162509 75 28 5.0 9.0 0.00 0.00 0.00 70 1016.1
20200919162016 75 24 4.0 8.0 0.00 0.00 0.00 69 1016.1
20200919161517 75 24 3.0 9.0 0.00 0.00 0.00 68 1016.2
20200919161015 75 27 6.0 12.0 0.00 0.00 0.00 67 1016.2
20200919160514 76 26 4.0 8.0 0.00 0.00 0.00 67 1016.3
20200919160015 76 28 3.0 9.0 0.00 0.00 0.00 67 1016.3
20200919155513 76 25 4.0 8.0 0.00 0.00 0.00 66 1016.3
20200919155012 76 26 4.0 7.0 0.00 0.00 0.00 67 1016.3
20200919154524 76 25 5.0 12.0 0.00 0.00 0.00 65 1016.3
20200919154021 76 25 3.0 9.0 0.00 0.00 0.00 66 1016.3
20200919153516 76 26 5.0 8.0 0.00 0.00 0.00 66 1016.3
20200919153017 77 24 6.0 10.0 0.00 0.00 0.00 66 1016.3
20200919152512 77 26 5.0 10.0 0.00 0.00 0.00 65 1016.3
20200919152011 77 30 5.0 10.0 0.00 0.00 0.00 64 1016.3
20200919151515 77 27 6.0 10.0 0.00 0.00 0.00 63 1016.3
20200919151019 78 29 4.0 8.0 0.00 0.00 0.00 62 1016.3
20200919150511 77 19 3.0 8.0 0.00 0.00 0.00 63 1016.3
20200919150027 77 24 5.0 9.0 0.00 0.00 0.00 62 1016.3
20200919145512 78 26 4.0 8.0 0.00 0.00 0.00 62 1016.4
20200919145022 77 31 6.0 12.0 0.00 0.00 0.00 62 1016.4
20200919144513 78 26 5.0 10.0 0.00 0.00 0.00 63 1016.4
20200919144011 78 22 5.0 9.0 0.00 0.00 0.00 63 1016.4
20200919143516 78 25 6.0 9.0 0.00 0.00 0.00 63 1016.4
20200919143038 78 27 5.0 12.0 0.00 0.00 0.00 63 1016.5
20200919142510 78 22 3.0 10.0 0.00 0.00 0.00 64 1016.4
20200919142018 78 27 6.0 12.0 0.00 0.00 0.00 63 1016.5
20200919141513 78 21 3.0 9.0 0.00 0.00 0.00 64 1016.5
20200919141018 78 30 6.0 12.0 0.00 0.00 0.00 65 1016.5
20200919140511 78 26 5.0 12.0 0.00 0.00 0.00 64 1016.6
20200919140024 79 18 4.0 12.0 0.00 0.00 0.00 63 1016.6
20200919135512 79 23 3.0 8.0 0.00 0.00 0.00 62 1016.6
20200919135013 79 28 5.0 12.0 0.00 0.00 0.00 62 1016.7
20200919134541 79 22 6.0 9.0 0.00 0.00 0.00 61 1016.7
20200919134011 79 16 3.0 12.0 0.00 0.00 0.00 63 1016.8
20200919133514 79 21 6.0 12.0 0.00 0.00 0.00 62 1016.8
20200919133018 80 30 4.0 10.0 0.00 0.00 0.00 60 1016.9
20200919132518 79 27 4.0 10.0 0.00 0.00 0.00 61 1017.0
20200919132011 79 33 6.0 10.0 0.00 0.00 0.00 60 1016.9
20200919131517 79 32 4.0 10.0 0.00 0.00 0.00 61 1016.9
20200919131018 79 30 5.0 10.0 0.00 0.00 0.00 60 1017.0
20200919130511 80 21 4.0 10.0 0.00 0.00 0.00 60 1017.0
20200919130020 79 27 3.0 12.0 0.00 0.00 0.00 61 1017.1
20200919125509 80 22 4.0 12.0 0.00 0.00 0.00 59 1017.1
20200919125020 80 24 3.0 6.0 0.00 0.00 0.00 59 1017.1
20200919124520 80 28 5.0 12.0 0.00 0.00 0.00 58 1017.2
20200919124017 79 26 4.0 7.0 0.00 0.00 0.00 59 1017.2
20200919123513 79 24 4.0 12.0 0.00 0.00 0.00 59 1017.2
20200919123032 79 20 4.0 12.0 0.00 0.00 0.00 59 1017.2
20200919122512 80 31 3.0 6.0 0.00 0.00 0.00 58 1017.2
20200919122012 79 30 3.0 10.0 0.00 0.00 0.00 59 1017.2
20200919121522 79 18 5.0 12.0 0.00 0.00 0.00 59 1017.1
20200919121017 80 29 5.0 12.0 0.00 0.00 0.00 57 1017.0
20200919120517 80 33 2.0 12.0 0.00 0.00 0.00 58 1017.1
20200919120018 79 19 3.0 10.0 0.00 0.00 0.00 58 1017.2
20200919115512 79 29 5.0 12.0 0.00 0.00 0.00 60 1017.2
20200919115012 79 21 5.0 12.0 0.00 0.00 0.00 60 1017.2
20200919114529 79 30 5.0 12.0 0.00 0.00 0.00 59 1017.2
20200919114010 79 20 5.0 12.0 0.00 0.00 0.00 59 1017.3
20200919113515 79 27 7.0 12.0 0.00 0.00 0.00 59 1017.3
20200919113011 79 353 4.0 9.0 0.00 0.00 0.00 58 1017.4
20200919112516 79 33 4.0 9.0 0.00 0.00 0.00 58 1017.5
20200919112010 79 27 7.0 10.0 0.00 0.00 0.00 59 1017.5
20200919111522 79 29 7.0 12.0 0.00 0.00 0.00 60 1017.5
20200919111010 79 27 5.0 8.0 0.00 0.00 0.00 59 1017.6
20200919110511 78 30 4.0 9.0 0.00 0.00 0.00 61 1017.6
20200919110020 78 24 5.0 12.0 0.00 0.00 0.00 60 1017.7
20200919105515 78 31 5.0 12.0 0.00 0.00 0.00 63 1017.6
20200919105012 78 32 6.0 15.0 0.00 0.00 0.00 62 1017.7
20200919104520 78 25 6.0 12.0 0.00 0.00 0.00 62 1017.7
20200919104011 78 24 5.0 12.0 0.00 0.00 0.00 64 1017.7
20200919103509 78 33 6.0 12.0 0.00 0.00 0.00 63 1017.8
20200919103030 78 24 6.0 12.0 0.00 0.00 0.00 62 1017.9
20200919102511 78 25 5.0 12.0 0.00 0.00 0.00 63 1017.9
20200919102010 78 25 6.0 12.0 0.00 0.00 0.00 63 1017.9
20200919101521 78 3 5.0 10.0 0.00 0.00 0.00 64 1017.9
20200919101016 78 23 5.0 12.0 0.00 0.00 0.00 64 1017.9
20200919100509 78 26 7.0 14.0 0.00 0.00 0.00 64 1018.0
20200919100025 77 24 5.0 13.0 0.00 0.00 0.00 63 1017.9
20200919095508 78 25 6.0 13.0 0.00 0.00 0.00 63 1018.1
20200919095010 78 30 6.0 12.0 0.00 0.00 0.00 64 1018.1
20200919094518 77 21 4.0 10.0 0.00 0.00 0.00 63 1018.1
20200919094019 77 27 7.0 12.0 0.00 0.00 0.00 64 1018.1
20200919093512 77 21 6.0 9.0 0.00 0.00 0.00 64 1018.1
20200919093019 77 11 5.0 12.0 0.00 0.00 0.00 64 1018.1
20200919092521 77 28 5.0 12.0 0.00 0.00 0.00 63 1018.2
20200919092031 78 33 6.0 12.0 0.00 0.00 0.00 63 1018.2
20200919091520 77 30 4.0 12.0 0.00 0.00 0.00 65 1018.2
20200919091016 77 20 5.0 9.0 0.00 0.00 0.00 65 1018.3
20200919090510 76 26 5.0 12.0 0.00 0.00 0.00 65 1018.3
20200919090022 76 25 7.0 12.0 0.00 0.00 0.00 65 1018.3
20200919085518 77 18 4.0 8.0 0.00 0.00 0.00 66 1018.2
20200919085011 76 17 6.0 12.0 0.00 0.00 0.00 66 1018.3
20200919084522 76 28 4.0 10.0 0.00 0.00 0.00 68 1018.3
20200919084011 76 24 5.0 10.0 0.00 0.00 0.00 68 1018.3
20200919083511 76 22 5.0 12.0 0.00 0.00 0.00 68 1018.3
20200919083034 76 31 7.0 13.0 0.00 0.00 0.00 68 1018.2
20200919082509 76 5 3.0 13.0 0.00 0.00 0.00 69 1018.2
20200919082023 76 29 5.0 15.0 0.00 0.00 0.00 69 1018.2
20200919081509 76 24 5.0 13.0 0.00 0.00 0.00 69 1018.2
20200919081017 75 28 7.0 18.0 0.00 0.00 0.00 69 1018.1
20200919080510 75 28 5.0 12.0 0.00 0.00 0.00 70 1018.1
20200919080014 75 29 8.0 14.0 0.00 0.00 0.00 70 1018.0
20200919075508 75 28 4.0 12.0 0.00 0.00 0.00 70 1018.0
20200919075021 75 31 5.0 12.0 0.00 0.00 0.00 71 1018.0
20200919074525 75 31 6.0 12.0 0.00 0.00 0.00 71 1018.0
20200919074011 74 26 3.0 12.0 0.00 0.00 0.00 72 1018.0
20200919073508 74 31 4.0 12.0 0.00 0.00 0.00 72 1018.0
20200919073019 74 18 5.0 10.0 0.00 0.00 0.00 73 1018.0
20200919072512 73 25 5.0 8.0 0.00 0.00 0.00 74 1018.0
20200919072009 73 34 5.0 9.0 0.00 0.00 0.00 74 1017.9
20200919071520 73 22 3.0 5.0 0.00 0.00 0.00 75 1018.0
20200919071009 72 34 4.0 7.0 0.00 0.00 0.00 76 1017.9
20200919070518 71 27 3.0 6.0 0.00 0.00 0.00 77 1017.8
20200919070025 70 2 2.0 7.0 0.00 0.00 0.00 79 1017.8
20200919065511 70 22 2.0 8.0 0.00 0.00 0.00 80 1017.9
20200919065016 69 355 2.0 7.0 0.00 0.00 0.00 81 1017.8
20200919064536 69 0 2.0 7.0 0.00 0.00 0.00 81 1017.8
20200919064020 69 315 2.0 5.0 0.00 0.00 0.00 81 1017.7
20200919063535 68 248 3.0 6.0 0.00 0.00 0.00 82 1017.7
20200919063021 68 298 1.0 3.0 0.00 0.00 0.00 82 1017.7
20200919062512 68 297 1.0 3.0 0.00 0.00 0.00 82 1017.6
20200919062012 68 283 2.0 5.0 0.00 0.00 0.00 82 1017.6
20200919061514 68 273 1.0 3.0 0.00 0.00 0.00 82 1017.5
20200919061020 68 301 2.0 3.0 0.00 0.00 0.00 82 1017.5
20200919060509 68 305 1.0 3.0 0.00 0.00 0.00 82 1017.5
20200919060026 68 296 2.0 5.0 0.00 0.00 0.00 82 1017.4
20200919055511 68 274 2.0 5.0 0.00 0.00 0.00 82 1017.4
20200919055011 68 319 2.0 5.0 0.00 0.00 0.00 82 1017.4
20200919054518 68 346 2.0 3.0 0.00 0.00 0.00 82 1017.3
20200919054012 68 281 1.0 3.0 0.00 0.00 0.00 83 1017.3
20200919053510 68 278 1.0 5.0 0.00 0.00 0.00 83 1017.2
20200919053050 68 346 1.0 3.0 0.00 0.00 0.00 83 1017.2
20200919052510 67 315 2.0 3.0 0.00 0.00 0.00 83 1017.2
20200919052009 67 288 2.0 5.0 0.00 0.00 0.00 83 1017.2
20200919051513 67 298 1.0 3.0 0.00 0.00 0.00 83 1017.2
20200919051009 67 278 1.0 3.0 0.00 0.00 0.00 83 1017.2
20200919050511 67 260 2.0 3.0 0.00 0.00 0.00 83 1017.1
20200919050023 67 255 1.0 5.0 0.00 0.00 0.00 83 1017.1
20200919045515 67 307 1.0 3.0 0.00 0.00 0.00 83 1017.0
20200919045015 67 277 1.0 5.0 0.00 0.00 0.00 83 1016.9
20200919044517 67 312 1.0 3.0 0.00 0.00 0.00 83 1016.8
20200919044021 67 283 2.0 3.0 0.00 0.00 0.00 83 1016.8
20200919043509 67 284 1.0 5.0 0.00 0.00 0.00 83 1016.8
20200919043013 67 289 1.0 3.0 0.00 0.00 0.00 83 1016.8
20200919042511 67 230 0.0 3.0 0.00 0.00 0.00 83 1016.7
20200919042024 67 284 1.0 5.0 0.00 0.00 0.00 83 1016.7
20200919041514 67 305 2.0 6.0 0.00 0.00 0.00 82 1016.7
20200919041011 68 316 2.0 5.0 0.00 0.00 0.00 82 1016.7
20200919040513 68 343 2.0 3.0 0.00 0.00 0.00 82 1016.7
20200919040029 68 322 1.0 5.0 0.00 0.00 0.00 82 1016.6
20200919035507 68 265 1.0 2.0 0.00 0.00 0.00 82 1016.6
20200919035018 68 298 1.0 3.0 0.00 0.00 0.00 82 1016.7
20200919034517 68 5 1.0 2.0 0.00 0.00 0.00 82 1016.7
20200919034019 68 351 2.0 3.0 0.00 0.00 0.00 82 1016.7
20200919033514 68 305 1.0 3.0 0.00 0.00 0.00 82 1016.6
20200919033022 68 329 1.0 3.0 0.00 0.00 0.00 82 1016.6
20200919032511 68 310 3.0 5.0 0.00 0.00 0.00 82 1016.6
20200919032011 68 302 2.0 5.0 0.00 0.00 0.00 82 1016.6
20200919031513 68 333 2.0 6.0 0.00 0.00 0.00 82 1016.7
20200919031015 68 300 2.0 6.0 0.00 0.00 0.00 82 1016.7
20200919030513 68 333 1.0 3.0 0.00 0.00 0.00 82 1016.8
20200919030022 68 275 2.0 3.0 0.00 0.00 0.00 82 1016.8
20200919025514 68 296 2.0 5.0 0.00 0.00 0.00 82 1016.9
20200919023022 68 301 2.0 7.0 0.00 0.00 0.00 81 1016.8
20200919022519 68 286 1.0 5.0 0.00 0.00 0.00 81 1016.8
20200919022033 68 321 1.0 6.0 0.00 0.00 0.00 81 1016.9
20200919021514 68 242 1.0 5.0 0.00 0.00 0.00 81 1016.9
20200919021023 68 263 1.0 3.0 0.00 0.00 0.00 80 1016.8
20200919020518 69 298 3.0 3.0 0.00 0.00 0.00 80 1016.8
20200919020026 69 324 1.0 3.0 0.00 0.00 0.00 80 1016.7
20200919015513 69 310 0.0 2.0 0.00 0.00 0.00 80 1016.7
20200919015018 69 270 1.0 2.0 0.00 0.00 0.00 80 1016.7
20200919014511 69 226 1.0 3.0 0.00 0.00 0.00 79 1016.6
20200919014017 69 309 2.0 5.0 0.00 0.00 0.00 80 1016.7
20200919013511 69 266 1.0 3.0 0.00 0.00 0.00 79 1016.7
20200919013022 69 300 1.0 5.0 0.00 0.00 0.00 79 1016.8
20200919012512 69 286 1.0 3.0 0.00 0.00 0.00 80 1016.8
20200919012017 69 329 1.0 3.0 0.00 0.00 0.00 80 1016.8
20200919011524 69 307 2.0 3.0 0.00 0.00 0.00 80 1016.8
20200919011023 69 249 2.0 5.0 0.00 0.00 0.00 80 1016.8
20200919010512 69 291 2.0 5.0 0.00 0.00 0.00 80 1016.8
20200919010029 69 298 2.0 3.0 0.00 0.00 0.00 80 1016.7
20200919005514 69 321 2.0 3.0 0.00 0.00 0.00 80 1016.7
20200919005024 69 332 2.0 5.0 0.00 0.00 0.00 80 1016.7
20200919004519 69 325 2.0 5.0 0.00 0.00 0.00 80 1016.8
20200919004025 69 351 2.0 3.0 0.00 0.00 0.00 80 1016.9
20200919003511 69 328 2.0 5.0 0.00 0.00 0.00 80 1016.8
20200919003016 69 318 1.0 3.0 0.00 0.00 0.00 80 1016.8
20200919002512 69 271 1.0 3.0 0.00 0.00 0.00 80 1016.8
20200919002024 69 287 1.0 3.0 0.00 0.00 0.00 80 1016.9
20200919001521 69 279 1.0 3.0 0.00 0.00 0.00 80 1016.9
20200919001017 69 264 2.0 5.0 0.00 0.00 0.00 79 1017.0
20200919000514 69 302 2.0 5.0 0.00 0.00 0.00 79 1017.0
20200919000025 69 269 1.0 3.0 0.00 0.00 0.00 79 1017.0
20200918235511 69 293 1.0 3.0 0.00 0.00 0.00 79 1016.9
20200918235019 69 285 1.0 5.0 0.00 0.00 0.00 79 1016.9
20200918234521 69 308 2.0 3.0 0.00 0.00 0.00 79 1016.9
20200918234019 69 355 1.0 5.0 0.00 0.00 0.00 79 1017.0
20200918233512 69 271 2.0 9.0 0.00 0.00 0.00 79 1017.0
20200918233031 69 320 1.0 6.0 0.00 0.00 0.00 79 1017.0
20200918232512 69 285 2.0 6.0 0.00 0.00 0.00 79 1017.0
20200918232025 69 300 2.0 7.0 0.00 0.00 0.00 79 1017.0
20200918231516 69 278 3.0 7.0 0.00 0.00 0.00 79 1017.0
20200918231022 69 282 2.0 9.0 0.00 0.00 0.00 79 1017.0
20200918230517 69 266 2.0 7.0 0.00 0.00 0.00 79 1017.1
20200918230019 70 288 2.0 7.0 0.00 0.00 0.00 78 1017.0
20200918225513 70 303 3.0 7.0 0.00 0.00 0.00 78 1017.0
20200918225019 70 310 3.0 6.0 0.00 0.00 0.00 78 1017.0
20200918224515 70 321 2.0 5.0 0.00 0.00 0.00 77 1017.0
20200918224016 70 259 2.0 7.0 0.00 0.00 0.00 76 1017.0
20200918223513 70 294 2.0 7.0 0.00 0.00 0.00 76 1017.0
20200918223031 70 320 3.0 5.0 0.00 0.00 0.00 75 1016.9
20200918222513 70 286 3.0 6.0 0.00 0.00 0.00 75 1016.9
20200918222017 70 319 2.0 6.0 0.00 0.00 0.00 74 1016.9
20200918221518 70 277 3.0 6.0 0.00 0.00 0.00 74 1016.9
20200918221018 70 313 3.0 6.0 0.00 0.00 0.00 74 1016.9
20200918220513 70 322 3.0 7.0 0.00 0.00 0.00 74 1016.8
20200918220019 70 316 3.0 7.0 0.00 0.00 0.00 73 1016.8
20200918215511 71 344 3.0 8.0 0.00 0.00 0.00 73 1016.8
20200918215022 71 294 3.0 7.0 0.00 0.00 0.00 73 1016.8
20200918214522 71 312 3.0 7.0 0.00 0.00 0.00 72 1016.7
20200918214025 71 313 3.0 6.0 0.00 0.00 0.00 72 1016.8
20200918213523 71 294 2.0 5.0 0.00 0.00 0.00 72 1016.7
20200918213016 71 288 3.0 7.0 0.00 0.00 0.00 72 1016.7
20200918212518 71 291 3.0 5.0 0.00 0.00 0.00 72 1016.7
20200918212025 71 321 3.0 6.0 0.00 0.00 0.00 72 1016.7
20200918211511 71 316 2.0 7.0 0.00 0.00 0.00 72 1016.7
20200918211019 71 299 4.0 8.0 0.00 0.00 0.00 72 1016.8
20200918210511 71 354 3.0 7.0 0.00 0.00 0.00 72 1016.8
20200918210012 71 342 3.0 6.0 0.00 0.00 0.00 73 1016.8
20200918205511 72 286 2.0 6.0 0.00 0.00 0.00 73 1016.8
20200918205017 72 293 4.0 7.0 0.00 0.00 0.00 72 1016.6
20200918204511 72 321 3.0 7.0 0.00 0.00 0.00 72 1016.6
20200918204018 72 322 3.0 7.0 0.00 0.00 0.00 72 1016.6
20200918203514 72 331 2.0 6.0 0.00 0.00 0.00 72 1016.6
20200918203018 72 316 3.0 6.0 0.00 0.00 0.00 72 1016.6
20200918202519 72 302 2.0 6.0 0.00 0.00 0.00 72 1016.6
20200918202017 72 326 2.0 6.0 0.00 0.00 0.00 72 1016.6
20200918201514 72 20 3.0 6.0 0.00 0.00 0.00 73 1016.6
20200918201020 72 321 3.0 7.0 0.00 0.00 0.00 74 1016.6
20200918200513 72 320 2.0 3.0 0.00 0.00 0.00 75 1016.6
20200918200024 73 348 2.0 5.0 0.00 0.00 0.00 78 1016.6
20200918195517 73 12 2.0 6.0 0.00 0.00 0.00 79 1016.6
20200918195017 73 353 3.0 6.0 0.00 0.00 0.00 79 1016.6
20200918194518 73 343 3.0 6.0 0.00 0.00 0.00 79 1016.6
20200918194015 74 354 2.0 5.0 0.00 0.00 0.00 79 1016.6
20200918193511 74 347 2.0 5.0 0.00 0.00 0.00 79 1016.6
20200918193016 74 3 2.0 5.0 0.00 0.00 0.00 79 1016.6
20200918192515 74 19 3.0 5.0 0.00 0.00 0.00 78 1016.5
20200918192020 74 19 2.0 5.0 0.00 0.00 0.00 78 1016.5
20200918191520 74 24 3.0 7.0 0.00 0.00 0.00 78 1016.4
20200918191018 74 23 2.0 3.0 0.00 0.00 0.00 77 1016.4
20200918190514 74 21 3.0 7.0 0.00 0.00 0.00 77 1016.4
20200918190011 74 25 3.0 7.0 0.00 0.00 0.00 76 1016.3